Regional Weather Roundup
Issued by NWS

Current Version | Previous Version | Text Only | Print | Product List | Glossary On
Versions: 1 2 3 4 5 6 7 8 9 10 11 12 13 14 15 16 17 18 19 20 21 22 23 24 25 26 27 28 29 30 31 32 33 34 35 36 37 38 39 40 41 42 43 44 45 46 47 48 49 50
000
ASUS44 KLIX 250013
RWRLA
LOUISIANA WEATHER ROUNDUP
NATIONAL WEATHER SERVICE NEW ORLEANS LA
700 PM CDT SAT JUN 24 2017

NOTE: "FAIR" INDICATES FEW OR NO CLOUDS BELOW 12,000 FEET WITH NO
      SIGNIFICANT WEATHER AND/OR OBSTRUCTIONS TO VISIBILITY.
      SKY/WX - SKY CONDITION AND SIGNIFICANT WEATHER.
      TMP - AIR TEMPERATURE.    DP   - DEWPOINT TEMPERATURE.
      RH  - RELATIVE HUMIDITY.  PRES - PRESSURE.
      HX  - HEAT INDEX.         WCI  - WIND CHILL INDEX.

*  THESE STATIONS ARE NOT NWS OR FAA STATIONS AND ARE NOT UNDER
   NWS QUALITY CONTROL.

LAZ040-048-061>063-065-066-069-250100-
SOUTHEAST LOUISIANA

CITY           SKY/WX    TMP DP  RH WIND       PRES   REMARKS
N.O. INTL ARPT PTSUNNY   78  74  87 CALM      30.05S
6HR MIN TEMP:  73; 6HR MAX TEMP:  90; 6HR PCP:  2.93;

N.O. LAKEFRONT PTSUNNY   80  76  87 W7        30.06R
6HR MIN TEMP:  80; 6HR MAX TEMP:  85; 6HR PCP:  0.01;

N.O. DOWNTOWN*   N/A     81  75  82 CALM        N/A
6HR MIN TEMP:  76; 6HR MAX TEMP:  83; 6HR PCP:  0.46;

RESERVE*       LGT RAIN  77  74  91 SW5       30.06R
6HR MIN TEMP:  76; 6HR MAX TEMP:  89;

SLIDELL        CLOUDY    77  75  93 CALM      30.04S
6HR MIN TEMP:  73; 6HR MAX TEMP:  90; 6HR PCP:  1.60;

BATON ROUGE    CLOUDY    78  75  90 VRB3      30.05R
6HR MIN TEMP:  75; 6HR MAX TEMP:  89; 6HR PCP:  0.61;

BOOTHVILLE     SUNNY     85  76  74 W7        30.05S
6HR MIN TEMP:  85; 6HR MAX TEMP:  87;

BELLE CHASSE   PTSUNNY  N/A N/A N/A CALM      30.05S
                                      6HR PCP:  0.20;

BOGALUSA*      FAIR      79  74  85 CALM      30.05F
6HR MIN TEMP:  79; 6HR MAX TEMP:  90; 6HR PCP:  0.01;

GALLIANO*      PTCLDY    82  71  71 NW7       30.06R
6HR MIN TEMP:  80; 6HR MAX TEMP:  88;

NEW ROADS*       N/A     77  75  93 N3        30.06R
6HR MIN TEMP:  77; 6HR MAX TEMP:  87; 6HR PCP:  0.01;

GONZALES*      RAIN      78  74  88 S3        30.05S
6HR MIN TEMP:  78; 6HR MAX TEMP:  89; 6HR PCP:  0.04;

HAMMOND*       CLOUDY    73  70  88 CALM      30.05S
HOUMA*         MOSUNNY   75  73  94 N5        30.05
PORT FOURCHON* CLEAR    N/A N/A N/A W5        30.04F

$$

LAZ041-044-053-054-250100-
SOUTHWEST LOUISIANA

CITY           SKY/WX    TMP DP  RH WIND       PRES   REMARKS
LAKE CHARLES   CLOUDY    84  79  85 E5        30.01F HX  96
6HR MIN TEMP:  84; 6HR MAX TEMP:  90; 6HR PCP: TRACE;

LAFAYETTE      CLOUDY    79  78  97 SE3       30.05S
6HR MIN TEMP:  76; 6HR MAX TEMP:  91; 6HR PCP:  0.91;

PATTERSON      LGT RAIN  77  75  93 E9        30.06S
6HR MIN TEMP:  77; 6HR MAX TEMP:  90; 6HR PCP: TRACE;

SALT POINT       N/A     82  74  76 VRB5      30.04R
6HR MIN TEMP:  82; 6HR MAX TEMP:  88;

NEW IBERIA     CLOUDY    79  73  82 N6        30.06R
6HR MIN TEMP:  79; 6HR MAX TEMP:  90; 6HR PCP:  0.01;

CHENAULT AIRPK NOT AVBL

$$

LAZ027-028-250100-
CENTRAL LOUISIANA

CITY           SKY/WX    TMP DP  RH WIND       PRES   REMARKS
FORT POLK      MOSUNNY   77  74  90 E6        30.03S
6HR MIN TEMP:  74; 6HR MAX TEMP:  80; 6HR PCP:  0.14;

ALEXANDRIA INT LGT RAIN  74  73  97 NE3       30.03F
6HR MIN TEMP:  73; 6HR MAX TEMP:  87; 6HR PCP:  1.60;

ALEXANDRIA     CLOUDY    76  75  97 E3        30.05F
6HR MIN TEMP:  74; 6HR MAX TEMP:  87; 6HR PCP:  0.63;


$$

LAZ001-002-250100-
NORTHWEST LOUISIANA

CITY           SKY/WX    TMP DP  RH WIND       PRES   REMARKS
SHREVEPORT     CLOUDY    80  70  71 NE13      30.06R
6HR MIN TEMP:  79; 6HR MAX TEMP:  86;

BARKSDALE AFB  CLOUDY    79  69  71 NE7       30.06R
6HR MIN TEMP:  79; 6HR MAX TEMP:  84;

DTN SHREVEPORT CLOUDY    80  68  66 N9        30.07R
6HR MIN TEMP:  79; 6HR MAX TEMP:  86;


$$

LAZ014-016-250100-
NORTHEAST LOUISIANA

CITY           SKY/WX    TMP DP  RH WIND       PRES   REMARKS
MONROE         CLOUDY    81  68  64 NE6       30.08R
6HR MIN TEMP:  81; 6HR MAX TEMP:  87;

TALLULAH       CLOUDY    80  72  76 N5        30.07R
6HR MIN TEMP:  80; 6HR MAX TEMP:  87;


$$




USA.gov is the U.S. government's official web portal to all federal, state and local government web resources and services.